User: anonymous   Login
Location: Long Point Provincial Park
(42.5794°N, 80.4103°W)
Time: 09:40:38
(UTC-04:00)
Language:

Iridium 19 - Orbit

View from above orbital plane
View from above orbital plane
View from above satellite
View from above satellite

Ground track
Ground track

The orbit data is extracted from the following two-line orbital elements,

1 24965U 97056A   15145.41320381  .00000250  00000-0  82283-4 0  9995
2 24965 086.3958 273.7434 0002241 094.5028 265.6423 14.34219179924514
Epoch (UTC): 25 May 2015 09:55:00
Eccentricity: 0.0002241
inclination: 86.3958°
perigee height: 776 km
apogee height: 779 km
right ascension of ascending node: 273.7434°
argument of perigee: 94.5028°
revolutions per day: 14.34219179
mean anomaly at epoch: 265.6423°
orbit number at epoch: 92451

The dashed part of the orbit path shows where the satellite is in the earth's shadow,  

DLR